Preview of NWS' New Version of Forecast
This preview is not operational and should not be used for support decisions.

Terminal Aerodrome Forecast (TAF)

Issued by National Weather Service (NWS)

                            
000
FTUS42 KMFL 150255 AAA
TAFMIA
TAF AMD
KMIA 150255Z 1503/1606 34005KT P6SM SKC
     FM151400 35006KT P6SM SCT035
     FM151700 01008KT P6SM SCT035=